This demonstration page uses our WeatherBlox Daily Observations layout. Learn more.

Left ArrowRight Arrow

Hourly Observations for December 17, 2019

Temp ( °F °C ) Dew Point ( °F °C ) Humidity (%) Winds ( mph kmh ) Pressure ( in mb ) Visibility ( mi km ) Precip ( " mm )
12:53 am 00:53 Clear 33 0.6 30 -1.1 89 89 Calm 30.29 1026 9 14 0.00 0.00
1:53 am 01:53 Clear 33 0.6 30 -1.1 89 89 Calm 30.30 1026 10 16 0.00 0.00
2:53 am 02:53 Clear 33 0.6 30 -1.1 89 89 NW 6 9 30.31 1026 10 16 0.00 0.00
3:53 am 03:53 Clear 35 1.7 31 -0.6 85 85 N 5 7 30.30 1026 10 16 0.00 0.00
4:53 am 04:53 Clear 34 1.1 31 -0.6 89 89 Calm 30.30 1026 10 16 0.00 0.00
5:53 am 05:53 Clear 35 1.7 31 -0.6 85 85 Calm 30.30 1026 10 16 0.00 0.00
6:53 am 06:53 Clear 36 2.2 31 -0.6 82 82 NW 3 6 30.30 1026 10 16 0.00 0.00
7:53 am 07:53 Sunny 36 2.2 32 0 86 86 Calm 30.30 1026 10 16 0.00 0.00
8:53 am 08:53 Sunny 38 3.3 34 1.1 86 86 Calm 30.30 1026 10 16 0.00 0.00
9:53 am 09:53 Sunny 42 5.6 35 1.7 76 76 Calm 30.32 1027 10 16 0.00 0.00
10:53 am 10:53 Mostly Sunny 43 6.1 36 2.2 76 76 Calm 30.29 1026 10 16 0.00 0.00
11:53 am 11:53 Sunny 48 8.9 36 2.2 63 63 Calm 30.27 1025 10 16 0.00 0.00
12:53 pm 12:53 Sunny 50 10 36 2.2 59 59 Calm 30.22 1024 10 16 0.00 0.00
1:53 pm 13:53 Sunny 53 11.7 32 0 45 45 Calm 30.18 1022 10 16 0.00 0.00
2:53 pm 14:53 Sunny 53 11.7 31 -0.6 43 43 Calm 30.16 1021 10 16 0.00 0.00
3:53 pm 15:53 Sunny 51 10.6 35 1.7 54 54 E 5 7 30.14 1021 10 16 0.00 0.00
4:53 pm 16:53 Clear 47 8.3 36 2.2 66 66 Calm 30.13 1020 10 16 0.00 0.00
5:53 pm 17:53 Clear 43 6.1 36 2.2 76 76 Calm 30.11 1020 10 16 0.00 0.00
6:53 pm 18:53 Clear 40 4.4 35 1.7 83 83 Calm 30.09 1019 9 14 0.00 0.00
7:53 pm 19:53 Clear 39 3.9 33 0.6 79 79 Calm 30.06 1018 10 16 0.00 0.00
8:53 pm 20:53 Clear 36 2.2 31 -0.6 82 82 W 3 6 30.07 1018 9 14 0.00 0.00
9:53 pm 21:53 Clear 36 2.2 32 0 86 86 Calm 30.05 1018 7 11 0.00 0.00
10:53 pm 22:53 Clear 34 1.1 31 -0.6 89 89 Calm 30.04 1017 8 13 0.00 0.00
11:53 pm 23:53 Clear 33 0.6 30 -1.1 89 89 Calm 30.03 1017 8 13 0.00 0.00

Powered by AerisWeather